Regional Weather Roundup
Issued by NWS

Home | Current Version | Previous Version | Text Only | Print | Product List | Glossary On
Versions: 1 2 3 4 5 6 7 8 9 10 11 12 13 14 15 16 17 18 19 20 21 22 23 24 25 26 27 28
000
ASUS45 KPSR 312210
RWRAZ

ARIZONA HOURLY REGIONAL WEATHER ROUNDUP
NATIONAL WEATHER SERVICE PHOENIX AZ
300 PM MST WED AUG 31 2016

NOTE: FAIR INDICATES FEW OR NO CLOUDS BELOW 12,000 FEET WITH NO
SIGNIFICANT WEATHER AND/OR OBSTRUCTIONS TO VISIBILITY.

AZZ001>003-036-312300-
NORTHWEST ARIZONA

CITY           SKY/WX    TMP DP  RH WIND       PRES   REMARKS
BULLHEAD CITY  MOSUNNY  106  50  15 S7        29.76F HX 103
KINGMAN        MOSUNNY   94  49  21 S13       30.00F
$$

AZZ004>008-015-016-018-312300-
NORTH CENTRAL ARIZONA

CITY           SKY/WX    TMP DP  RH WIND       PRES   REMARKS
GRAND CANYON   MOSUNNY   78  41  26 E9        30.27F
PRESCOTT       MOSUNNY   85  52  32 CALM      30.14F
FLAGSTAFF      PTSUNNY   71  51  49 VRB6      30.30F
PAYSON         CLOUDY    72  61  68 NE12      30.19S
PAGE           SUNNY     93  39  15 VRB7      30.05F
$$

AZZ009>014-017-312300-
NORTHEAST ARIZONA

CITY           SKY/WX    TMP DP  RH WIND       PRES   REMARKS
WINSLOW        SUNNY     91  42  18 NE8       30.11F
SAINT JOHNS    SUNNY     86  39  19 VRB6      30.16F
WINDOW ROCK    MOSUNNY   82  44  26 E7        30.27F
SHOW LOW       PTSUNNY   77  39  25 CALM      30.23F
$$

AZZ023-312300-
GREATER PHOENIX AREA

CITY           SKY/WX    TMP DP  RH WIND       PRES   REMARKS
PHOENIX        MOSUNNY  103  56  21 NW5       29.79F HX 102
BUCKEYE        SUNNY    102  54  19 E7        29.81F HX 100
GLENDALE       MOSUNNY  104  54  18 CALM      29.81F HX 102
LUKE AFB       SUNNY    103  55  20 SE5       29.78F HX 101
DEER VALLEY    SUNNY    100  56  23 VRB7      29.82F
SCOTTSDALE     SUNNY    102  54  20 W7        29.83F HX 100
MESA-FALCON    MOSUNNY  N/A N/A N/A W9        29.79F
MESA-GATEWAY   MOSUNNY  102  55  21 E8        29.82F HX 101
CHANDLER       MOSUNNY  104  55  20 NE9       29.81F HX 103
$$

AZZ027-028-312300-
SOUTHWEST MARICOPA COUNTY AND PINAL COUNTY

CITY           SKY/WX    TMP DP  RH WIND       PRES   REMARKS
CASA GRANDE    SUNNY    102  54  19 E17       29.84F HX 100
GILA BEND      SUNNY    104  52  17 NE9       29.76F HX 102
$$

AZZ503-504-507>509-312300-
SOUTHEAST ARIZONA

CITY           SKY/WX    TMP DP  RH WIND       PRES   REMARKS
TUCSON         MOSUNNY   97  56  25 SE14G21   29.94F
DAVIS-MONTHAN  MOSUNNY   96  55  25 S6        29.93F
RYAN FIELD     MOSUNNY   95  57  28 E7G17     29.91F
NOGALES        MOSUNNY   85  54  34 SW5       30.03F
SIERRA VISTA   CLOUDY    81  57  44 E7        30.12F
DOUGLAS        MOSUNNY   80  65  59 N9        30.07F
SAFFORD        MOSUNNY   91  57  31 SE12      29.99F
$$

AZZ020-021-025-026-031-312300-
SOUTHWEST ARIZONA

CITY           SKY/WX    TMP DP  RH WIND       PRES   REMARKS
YUMA           MOSUNNY  105  61  23 SW10      29.73F HX 106
$$

CAZ031-033-041-043-047-048-061-312300-
SOUTHERN CALIFORNIA

CITY           SKY/WX    TMP DP  RH WIND       PRES   REMARKS
DOWNTOWN L.A.  SUNNY     81  63  54 VRB6      29.83F
L.A. AIRPORT   SUNNY     76  62  62 W15       29.84F
SAN DIEGO      MOSUNNY   77  65  66 NW12      29.86F
BURBANK        SUNNY     92  59  33 S13       29.83F
ONTARIO        MOSUNNY  100  51  19 W15       29.83F
RIVERSIDE      SUNNY    101  46  15 W8        29.82F
PALM SPRINGS   MOSUNNY  108  48  13 E12       29.75F HX 104
EL CENTRO NAS  MOSUNNY  108  54  16 SE6       29.70F HX 106
IMPERIAL       SUNNY    110  62  21 SE13      29.68F HX 113
BLYTHE         SUNNY    107  57  19 VRB7      29.73F HX 107
NEEDLES        SUNNY    110  50  13 VRB5      29.76F HX 107
$$

NVZ020-UTZ003-312300-
SOUTHERN NEVADA-UTAH

CITY           SKY/WX    TMP DP  RH WIND       PRES   REMARKS
LAS VEGAS      PTSUNNY  102  35  10 VRB6      29.82F
SALT LAKE CITY PTSUNNY   96  34  11 N9        29.99F
$$

NMZ009-TXZ055-312300-
NEW MEXICO-WEST TEXAS

CITY           SKY/WX    TMP DP  RH WIND       PRES   REMARKS
ALBUQUERQUE    MOSUNNY   81  51  35 VRB6      30.20F
EL PASO        PTSUNNY   79  64  60 E7        30.11F
$$


........................KEY........................
SKY/WX - SKY CONDITION/WEATHER
TMP    - TEMPERATURE IN FAHRENHEIT
DP     - DEW POINT IN FAHRENHEIT
RH     - RELATIVE HUMIDITY IN PERCENT
WIND   - DIRECTION AND SPEED IN MILES PER HOUR (MPH)
VRB    - VARIABLE WIND DIRECTION
PRES   - MEAN SEA LEVEL PRESSURE IN INCHES OF MERCURY
         F - FALLING PRESSURE   R - RISING PRESSURE
         S - STEADY PRESSURE
VSB    - VISIBILITY IN MILES
HX     - HEAT INDEX IN FAHRENHEIT
WCI    - WIND CHILL INDEX IN FAHRENHEIT
TC     - TEMPERATURE IN CELSIUS WHICH IS ALSO KNOWN AS
         TEMPERATURE IN CENTIGRADE
AFB    - AIR FORCE BASE
         LUKE AFB IS LUKE AIR FORCE BASE
         DAVIS-MONTHAN IS DAVIS-MONTHAN AIR FORCE BASE
NAS    - NAVAL AIR STATION
         EL CENTRO NAS IS EL CENTRO NAVAL AIR STATION
N/A    - NOT AVAILABLE





USA.gov is the U.S. government's official web portal to all federal, state and local government web resources and services.